Weather History for KMKL - March, 2014

Change the Weather History Date:

Friday, March 28, 2014

  Actual Average Record
Temperature  
Mean Temperature 65 °F 54 °F  
Max Temperature 72 °F 67 °F 84 °F (1989)
Min Temperature 57 °F 42 °F 24 °F (1955)
Degree Days  
Heating Degree Days 0 11  
Month to date heating degree days 547 413  
Since 1 July heating degree days 3843 3297  
Cooling Degree Days 0 1  
Month to date cooling degree days 0 4  
Year to date cooling degree days 0 5  
Growing Degree Days 16 (Base 50)    
Moisture  
Dew Point 58 °F    
Average Humidity 76    
Maximum Humidity 90    
Minimum Humidity 61    
Precipitation  
Precipitation 0.53 in 0.16 in 1.72 in (1975)
Month to date precipitation 5.11 4.24  
Year to date precipitation 13.27 12.48  
Snow  
Snow 0.00 in 0.10 in 0.00 in ()
Month to date snowfall 0.8 0.4  
Since 1 July snowfall 1.3 4.6  
Snow Depth 0.00 in    
Sea Level Pressure  
Sea Level Pressure 29.92 in    
Wind  
Wind Speed 7 mph (South)    
Max Wind Speed 20 mph    
Max Gust Speed 28 mph    
Visibility 10 miles    
Events Rain , Thunderstorm    
T = Trace of Precipitation, MM = Missing Value Source: NWS Daily Summary

Daily Weather History Graph

Daily Weather History Graph

Search for Another Location

Airport or City:

Trip Planner

Search our weather history database for the weather conditions in past years. The results will help you decide how hot, cold, wet, or windy it might be!

Date:

Astronomy

Mar. 28, 2014 Rise Set
Actual Time 6:47 AM CDT 7:14 PM CDT
Civil Twilight 6:22 AM CDT 7:39 PM CDT
Nautical Twilight 5:52 AM CDT 8:09 PM CDT
Astronomical Twilight 5:21 AM CDT 8:40 PM CDT
Moon 5:14 AM CDT (3/28) 5:14 PM CDT (3/28)
Length of Visible Light 13h 17m
Length of Day
12h 26m
Waning Crescent, 6% of the Moon is Illuminated
Mar 28
Waning Crescent
Mar 30
New
Apr 7
First Quarter
Apr 15
Full
Apr 22
Last Quarter

Hourly Weather History & Observations

Time (CDT) Temp. Dew Point Humidity Pressure Visibility Wind Dir Wind Speed Gust Speed Precip Events Conditions
12:22 AM 60.8 °F 53.6 °F 77% 29.89 in 10.0 mi South 12.7 mph 19.6 mph N/A   Overcast
12:53 AM 60.1 °F 54.0 °F 80% 29.89 in 10.0 mi South 12.7 mph 18.4 mph N/A   Overcast
1:53 AM 59.0 °F 55.0 °F 87% 29.87 in 10.0 mi South 11.5 mph - 0.01 in   Overcast
2:53 AM 60.1 °F 55.9 °F 86% 29.85 in 10.0 mi South 15.0 mph 21.9 mph N/A   Overcast
3:53 AM 60.1 °F 55.9 °F 86% 29.86 in 10.0 mi SSW 15.0 mph - N/A   Overcast
4:26 AM 60.8 °F 55.4 °F 82% 29.87 in 10.0 mi SSW 10.4 mph - N/A   Overcast
4:53 AM 61.0 °F 55.9 °F 83% 29.86 in 10.0 mi SSW 10.4 mph - N/A   Overcast
5:25 AM 60.8 °F 55.4 °F 82% 29.88 in 10.0 mi SSW 11.5 mph - N/A   Overcast
5:53 AM 60.1 °F 55.9 °F 86% 29.88 in 10.0 mi SSW 6.9 mph - N/A   Scattered Clouds
6:53 AM 59.0 °F 55.9 °F 90% 29.91 in 10.0 mi South 5.8 mph - N/A   Mostly Cloudy
7:53 AM 60.1 °F 57.0 °F 90% 29.94 in 10.0 mi SSW 3.5 mph - N/A   Overcast
8:53 AM 61.0 °F 57.0 °F 87% 29.95 in 10.0 mi South 6.9 mph - N/A   Overcast
9:20 AM 62.6 °F 57.2 °F 82% 29.96 in 10.0 mi SSW 5.8 mph - N/A   Overcast
9:53 AM 62.1 °F 57.9 °F 86% 29.96 in 10.0 mi South 4.6 mph - N/A   Overcast
10:53 AM 64.0 °F 59.0 °F 84% 29.97 in 10.0 mi SSW 5.8 mph - 0.00 in   Overcast
11:42 AM 64.4 °F 59.0 °F 83% 29.98 in 10.0 mi SSW 5.8 mph - N/A   Overcast
11:53 AM 64.9 °F 59.0 °F 81% 29.98 in 10.0 mi SW 4.6 mph - N/A   Overcast
12:53 PM 64.9 °F 59.0 °F 81% 29.96 in 10.0 mi SSE 3.5 mph - N/A   Overcast
1:36 PM 68.0 °F 60.8 °F 78% 29.96 in 10.0 mi SSE 5.8 mph - N/A   Overcast
1:53 PM 68.0 °F 60.1 °F 76% 29.95 in 10.0 mi Variable 4.6 mph - N/A   Overcast
2:53 PM 70.0 °F 59.0 °F 68% 29.92 in 10.0 mi East 8.1 mph - N/A   Overcast
3:53 PM 70.0 °F 57.9 °F 65% 29.90 in 10.0 mi SE 4.6 mph - N/A   Overcast
4:53 PM 72.0 °F 57.9 °F 61% 29.90 in 10.0 mi ESE 9.2 mph - N/A   Mostly Cloudy
5:53 PM 69.1 °F 57.9 °F 68% 29.91 in 10.0 mi SE 6.9 mph - N/A   Scattered Clouds
6:53 PM 66.9 °F 57.9 °F 73% 29.90 in 10.0 mi ESE 4.6 mph - N/A   Clear
7:53 PM 64.0 °F 57.9 °F 80% 29.96 in 10.0 mi Calm Calm - N/A   Overcast
8:36 PM 62.6 °F 60.8 °F 94% 29.93 in 4.0 mi SSE 5.8 mph - 0.13 in Rain , Thunderstorm Rain
8:51 PM 62.6 °F 60.8 °F 94% 29.95 in 8.0 mi Variable 3.5 mph - 0.17 in Rain Light Rain
8:53 PM 63.0 °F 60.1 °F 90% 29.94 in 8.0 mi SE 4.6 mph - 0.17 in Rain Light Rain
9:53 PM 63.0 °F 59.0 °F 87% 29.91 in 8.0 mi SSE 10.4 mph 17.3 mph 0.16 in Rain Rain
10:53 PM 62.1 °F 55.9 °F 80% 29.92 in 10.0 mi West 4.6 mph - 0.05 in Rain Light Rain
11:46 PM 60.8 °F 59.0 °F 94% 29.93 in 7.0 mi Calm Calm - 0.05 in Rain Light Rain
11:53 PM 60.1 °F 57.9 °F 93% 29.93 in 7.0 mi Calm Calm - 0.06 in Rain Light Rain